[TLELIST] Archives

 

[TLELIST] Current TLEs

September 21st 2024 PST

HST 1 20580U 90037B 24265.14030275 .00009784 00000-0 43808-3 0 9999 2 20580 28.4685 61.4761 0002978 22.3519 337.7203 15.19563613691891 ISS (ZARYA) 1 25544U 98067A 24265.36451681 .00042641 00000-0 76562-3 0 9999 2 25544 51.6393 198.9943 0007456 14.7540 80.9920 15.49430898473468 CXO 1 25867U 99040B 24268.34899607 .00000934 00000-0 00000+0 0 9993 2 25867 43.3521 145.6169 8791028 301.8089 0.2627 0.37808507 26096 ...Continue Reading

[TLELIST] Current TLEs

September 21st 2024 PST

HST 1 20580U 90037B 24265.14030275 .00009784 00000-0 43808-3 0 9999 2 20580 28.4685 61.4761 0002978 22.3519 337.7203 15.19563613691891 ISS (ZARYA) 1 25544U 98067A 24265.36451681 .00042641 00000-0 76562-3 0 9999 2 25544 51.6393 198.9943 0007456 14.7540 80.9920 15.49430898473468 CXO 1 25867U 99040B 24268.34899607 .00000934 00000-0 00000+0 0 9993 2 25867 43.3521 145.6169 8791028 301.8089 0.2627 0.37808507 26096 ...Continue Reading

[TLELIST] Current TLEs

September 20th 2024 PST

HST 1 20580U 90037B 24263.82675028 .00010303 00000-0 46211-3 0 9993 2 20580 28.4682 70.3029 0002896 8.3166 351.7475 15.19541342691437 ISS (ZARYA) 1 25544U 98067A 24264.34013905 .00019814 00000-0 36189-3 0 9996 2 25544 51.6387 204.0640 0007518 13.8616 124.3173 15.49370925473307 CXO 1 25867U 99040B 24265.70620479 .00000929 00000-0 00000-0 0 9994 2 25867 43.2714 145.8678 8793999 301.6310 0.5853 0.37811701 14934 ...Continue Reading

[TLELIST] Current TLEs

September 19th 2024 PST

HST 1 20580U 90037B 24262.90725159 .00009267 00000-0 41496-3 0 9999 2 20580 28.4677 76.4812 0002905 358.7928 1.2658 15.19523172691551 ISS (ZARYA) 1 25544U 98067A 24263.36748657 .00019358 00000-0 35430-3 0 9997 2 25544 51.6384 208.8799 0007224 11.1887 98.2784 15.49330945473154 CXO 1 25867U 99040B 24265.70479581 .00000929 00000-0 00000-0 0 9990 2 25867 43.2713 145.8679 8794012 301.6310 0.3930 0.37810694 14924 ...Continue Reading

[TLELIST] Current TLEs

September 18th 2024 PST

HST 1 20580U 90037B 24261.85638391 .00013888 00000-0 62645-3 0 9996 2 20580 28.4678 83.5421 0002820 347.1069 12.9451 15.19505013691139 ISS (ZARYA) 1 25544U 98067A 24262.33940465 .00065611 00000-0 11749-2 0 9993 2 25544 51.6381 213.9683 0007583 5.2664 126.2735 15.49317117472990 CXO 1 25867U 99040B 24263.06360888 .00001045 00000-0 00000+0 0 9995 2 25867 43.1647 146.1776 8794145 301.4188 0.8937 0.37808585 26076 ...Continue Reading

[TLELIST] Current TLEs

September 17th 2024 PST

HST 1 20580U 90037B 24260.87118105 .00011485 00000-0 51701-3 0 9995 2 20580 28.4679 90.1613 0002735 335.8657 24.1808 15.19479398690988 ISS (ZARYA) 1 25544U 98067A 24261.17659006 .00024718 00000-0 45147-3 0 9995 2 25544 51.6389 219.7186 0007644 2.2501 119.5832 15.49224336472819 CXO 1 25867U 99040B 24263.06360888 .00001045 00000-0 00000+0 0 9995 2 25867 43.1647 146.1776 8794145 301.4188 0.8937 0.37808585 26076 ...Continue Reading

[TLELIST] Current TLEs

September 17th 2024 PST

HST 1 20580U 90037B 24260.87118105 .00011485 00000-0 51701-3 0 9995 2 20580 28.4679 90.1613 0002735 335.8657 24.1808 15.19479398690988 ISS (ZARYA) 1 25544U 98067A 24261.17659006 .00024718 00000-0 45147-3 0 9995 2 25544 51.6389 219.7186 0007644 2.2501 119.5832 15.49224336472819 CXO 1 25867U 99040B 24263.06360888 .00001045 00000-0 00000+0 0 9995 2 25867 43.1647 146.1776 8794145 301.4188 0.8937 0.37808585 26076 ...Continue Reading

[TLELIST] Current TLEs

September 16th 2024 PST

HST 1 20580U 90037B 24259.88596335 .00012272 00000-0 55332-3 0 9998 2 20580 28.4678 96.7804 0002622 324.5080 35.5338 15.19459997690832 ISS (ZARYA) 1 25544U 98067A 24260.34710130 .00058006 00000-0 10450-2 0 9994 2 25544 51.6377 223.8252 0007548 359.6488 172.9644 15.49200405472682 CXO 1 25867U 99040B 24260.41841978 .00001178 00000-0 00000+0 0 9992 2 25867 43.0906 146.4135 8793537 301.2858 0.7279 0.37805052 26064 ...Continue Reading

[TLELIST] Current TLEs

September 15th 2024 PST

HST 1 20580U 90037B 24259.22914428 .00011593 00000-0 52246-3 0 9999 2 20580 28.4677 101.1925 0002563 317.3292 42.7101 15.19445664690996 ISS (ZARYA) 1 25544U 98067A 24259.37728730 .00068309 00000-0 12292-2 0 9993 2 25544 51.6367 228.6268 0007496 355.4785 164.9285 15.49161729472538 CXO 1 25867U 99040B 24260.41841978 .00001178 00000-0 00000+0 0 9992 2 25867 43.0906 146.4135 8793537 301.2858 0.7279 0.37805052 26064 ...Continue Reading

[TLELIST] Current TLEs

September 15th 2024 PST

HST 1 20580U 90037B 24259.22914428 .00011593 00000-0 52246-3 0 9999 2 20580 28.4677 101.1925 0002563 317.3292 42.7101 15.19445664690996 ISS (ZARYA) 1 25544U 98067A 24259.37728730 .00068309 00000-0 12292-2 0 9993 2 25544 51.6367 228.6268 0007496 355.4785 164.9285 15.49161729472538 CXO 1 25867U 99040B 24260.41841978 .00001178 00000-0 00000+0 0 9992 2 25867 43.0906 146.4135 8793537 301.2858 0.7279 0.37805052 26064 ...Continue Reading
  • This mailing list is a public mailing list - anyone may join or leave, at any time.
  • This mailing list is announce-only.

International Space Station (ISS) / Hubble Space Telescope (HST) / Chandra X-Ray Observatory Orbital Data via EMAIL

Privacy Policy:

Private list